Terminal Aerodrome Forecast
Issued by NWS

Current Version | Previous Version | Text Only | Print | Product List | Glossary On
Versions: 1 2 3 4 5 6 7 8 9 10 11 12 13 14 15 16 17 18 19 20 21 22 23 24 25
000
FTUS43 KDTX 240520
TAFMBS
TAF
KMBS 240520Z 2406/2506 07012KT P6SM BKN028 OVC060
     FM240900 05014KT 3SM RA BR BKN008 OVC015
     FM241200 05013KT 2SM -RA BR OVC006
     FM241600 05012KT 1SM -RA BR OVC004
     FM242000 04010KT 1/2SM -RA FG VV002=

USA.gov is the U.S. government's official web portal to all federal, state and local government web resources and services.